TimeCDT,TemperatureF,Dew PointF,Humidity,Sea Level PressureIn,VisibilityMPH,Wind Direction,Wind SpeedMPH,Gust SpeedMPH,PrecipitationIn,Events,Conditions,WindDirDegrees,DateUTC
12:53 AM,34.0,30.0,85,30.04,10.0,WNW,6.9,-,N/A,,Clear,290,2013-10-18 05:53:00
1:53 AM,33.1,30.0,89,30.04,10.0,WNW,6.9,-,N/A,,Clear,290,2013-10-18 06:53:00
2:53 AM,32.0,28.9,88,30.04,10.0,West,5.8,-,N/A,,Clear,280,2013-10-18 07:53:00
3:53 AM,32.0,28.9,88,30.03,10.0,WNW,8.1,-,N/A,,Clear,290,2013-10-18 08:53:00
4:53 AM,32.0,28.9,88,30.04,10.0,WNW,6.9,-,N/A,,Clear,290,2013-10-18 09:53:00
5:53 AM,32.0,28.9,88,30.05,10.0,WNW,6.9,-,N/A,,Clear,290,2013-10-18 10:53:00
6:53 AM,30.9,28.0,89,30.05,10.0,WNW,5.8,-,N/A,,Clear,290,2013-10-18 11:53:00
7:53 AM,27.0,25.0,92,30.06,10.0,Calm,Calm,-,N/A,,Clear,0,2013-10-18 12:53:00
8:53 AM,30.0,27.0,88,30.06,10.0,Calm,Calm,-,N/A,,Clear,0,2013-10-18 13:53:00
9:53 AM,37.0,30.9,79,30.06,10.0,West,4.6,-,N/A,,Clear,260,2013-10-18 14:53:00
10:53 AM,42.1,32.0,67,30.05,10.0,West,8.1,-,N/A,,Clear,260,2013-10-18 15:53:00
11:53 AM,45.0,32.0,60,30.03,10.0,WSW,9.2,-,N/A,,Clear,250,2013-10-18 16:53:00
12:53 PM,46.9,30.0,52,30.01,10.0,West,13.8,-,N/A,,Clear,260,2013-10-18 17:53:00
1:53 PM,46.9,30.9,54,29.99,10.0,West,13.8,20.7,N/A,,Mostly Cloudy,260,2013-10-18 18:53:00
2:53 PM,46.9,34.0,61,29.97,10.0,West,15.0,20.7,N/A,,Scattered Clouds,270,2013-10-18 19:53:00
3:53 PM,45.0,34.0,65,29.96,10.0,West,11.5,-,N/A,,Overcast,280,2013-10-18 20:53:00
4:40 PM,41.0,33.8,76,29.92,10.0,WNW,17.3,24.2,0.00,Rain,Light Rain,290,2013-10-18 21:40:00
4:53 PM,42.1,33.1,70,29.96,10.0,West,10.4,-,0.00,,Overcast,280,2013-10-18 21:53:00
5:53 PM,42.1,32.0,67,29.96,10.0,West,11.5,-,N/A,,Clear,270,2013-10-18 22:53:00
6:53 PM,37.0,32.0,82,29.96,10.0,West,6.9,-,N/A,,Clear,260,2013-10-18 23:53:00
7:53 PM,37.0,33.1,86,29.96,10.0,West,8.1,-,N/A,,Mostly Cloudy,260,2013-10-19 00:53:00
8:53 PM,35.1,32.0,89,29.94,10.0,WSW,6.9,-,N/A,,Mostly Cloudy,250,2013-10-19 01:53:00
9:53 PM,35.1,32.0,89,29.92,10.0,WSW,8.1,-,N/A,,Clear,240,2013-10-19 02:53:00
10:53 PM,35.1,33.1,92,29.90,10.0,WSW,9.2,-,N/A,,Mostly Cloudy,240,2013-10-19 03:53:00
11:53 PM,33.1,30.9,92,29.88,10.0,WSW,8.1,-,N/A,,Clear,250,2013-10-19 04:53:00